Indianapolis, IN

3:34 AM EST on December 11, 2019 (GMT -0500)
Indianapolis International

Weather History for KIND - November, 2019

Change the Weather History Date:

Friday, November 15, 2019

  Actual Average Record
Temperature  
Mean Temperature 35 °F 44 °F  
Max Temperature 46 °F 53 °F 74 °F (1971)
Min Temperature 24 °F 36 °F 12 °F (1933)
Degree Days  
Heating Degree Days 30 21  
Month to date heating degree days 439 270  
Since 1 July heating degree days 734 671  
Cooling Degree Days 0 0  
Month to date cooling degree days 0 0  
Year to date cooling degree days 1344 1065  
Moisture  
Dew Point 24 °F    
Average Humidity 68    
Maximum Humidity 85    
Minimum Humidity 39    
Precipitation  
Precipitation 0.00 in 0.13 in 2.55 in (1955)
Month to date precipitation 0.33 1.79  
Year to date precipitation 41.83 37.36  
Snow  
Snow 0.00 in 0.00 in 2.40 in (1997)
Month to date snowfall 2.8 0.2  
Since 1 July snowfall 2.8 0.6  
Since 1 September snowfall 2.8 0.6  
Snow Depth 0.00 in    
Sea Level Pressure  
Sea Level Pressure 30.37 in    
Wind  
Wind Speed 6 mph ()    
Max Wind Speed 16 mph    
Max Gust Speed 20 mph    
Visibility 9.5 miles    
Events      
T = Trace of Precipitation, MM = Missing Value Source: Averaged Metar Reports

Daily Weather History Graph

Daily Weather History Graph

Search for Another Location

Airport or City:

Astronomy

Nov. 15, 2019 Rise Set
Actual Time 7:29 AM EST 5:29 PM EST
Civil Twilight 7:00 AM EST 5:58 PM EST
Nautical Twilight 6:27 AM EST 6:31 PM EST
Astronomical Twilight 5:56 AM EST 7:02 PM EST
Moon 8:04 PM EST (11/15) 10:25 AM EST (11/15)
Length of Visible Light 10h 57m
Length of Day
10h 00m
Waning Gibbous, 90% of the Moon is Illuminated
Nov 15
Waning Gibbous
Nov 19
Last Quarter
Nov 26
New
Dec 4
First Quarter
Dec 12
Full

Hourly Weather History & Observations

Time (EST) Temp. Windchill Dew Point Humidity Pressure Visibility Wind Dir Wind Speed Gust Speed Precip Events Conditions
12:36 AM 27.0 °F 20.5 °F 21.0 °F 78% 30.34 in 10.0 mi West 5.8 mph - N/A   Scattered Clouds
12:54 AM 27.0 °F 21.6 °F 21.0 °F 78% 30.36 in 10.0 mi WSW 4.6 mph - N/A   Partly Cloudy
1:54 AM 24.1 °F 16.0 °F 19.9 °F 84% 30.35 in 10.0 mi WNW 6.9 mph - N/A   Clear
2:26 AM 25.0 °F 19.3 °F 21.0 °F 85% 30.33 in 10.0 mi WNW 4.6 mph - N/A   Mostly Cloudy
2:54 AM 28.0 °F 20.8 °F 21.9 °F 78% 30.36 in 10.0 mi NW 6.9 mph - N/A   Overcast
3:54 AM 28.9 °F 19.2 °F 21.9 °F 75% 30.36 in 10.0 mi NW 11.5 mph - N/A   Overcast
4:54 AM 28.9 °F 25.2 °F 21.9 °F 75% 30.36 in 10.0 mi NW 3.5 mph - N/A   Overcast
5:54 AM 28.0 °F 24.2 °F 21.9 °F 78% 30.38 in 10.0 mi NW 3.5 mph - N/A   Overcast
6:54 AM 27.0 °F 23.0 °F 21.0 °F 78% 30.38 in 9.0 mi NW 3.5 mph - N/A   Partly Cloudy
7:54 AM 26.1 °F 20.5 °F 21.0 °F 81% 30.39 in 6.0 mi NW 4.6 mph - N/A   Haze
8:54 AM 28.9 °F 23.9 °F 21.9 °F 75% 30.40 in 6.0 mi NW 4.6 mph - N/A   Clear
9:54 AM 32.0 °F 25.6 °F 23.0 °F 69% 30.39 in 7.0 mi NW 6.9 mph - N/A   Clear
10:54 AM 35.1 °F 30.1 °F 23.0 °F 61% 30.39 in 9.0 mi NNW 5.8 mph - N/A   Clear
11:54 AM 37.9 °F 35.5 °F 23.0 °F 55% 30.38 in 10.0 mi Variable 3.5 mph - N/A   Clear
12:54 PM 41.0 °F 36.4 °F 23.0 °F 49% 30.37 in 10.0 mi West 6.9 mph - N/A   Clear
1:54 PM 43.0 °F 39.5 °F 21.0 °F 42% 30.35 in 10.0 mi WNW 5.8 mph - N/A   Partly Cloudy
2:54 PM 45.0 °F 40.6 °F 21.0 °F 39% 30.34 in 10.0 mi WNW 8.1 mph - N/A   Partly Cloudy
3:54 PM 45.0 °F 40.1 °F 21.9 °F 40% 30.35 in 10.0 mi North 9.2 mph - N/A   Partly Cloudy
4:54 PM 42.1 °F 36.1 °F 26.1 °F 53% 30.36 in 10.0 mi NNW 10.4 mph - N/A   Partly Cloudy
5:54 PM 36.0 °F 29.6 °F 27.0 °F 70% 30.37 in 10.0 mi NNW 8.1 mph - N/A   Scattered Clouds
6:12 PM 37.9 °F 32.1 °F 28.0 °F 68% 30.34 in 10.0 mi NNW 8.1 mph - N/A   Mostly Cloudy
6:54 PM 37.9 °F 33.5 °F 27.0 °F 65% 30.37 in 10.0 mi North 5.8 mph - N/A   Mostly Cloudy
7:54 PM 37.9 °F 29.2 °F 30.0 °F 73% 30.38 in 10.0 mi North 15.0 mph - N/A   Mostly Cloudy
8:54 PM 37.0 °F 29.3 °F 30.0 °F 76% 30.38 in 10.0 mi NNE 11.5 mph - N/A   Mostly Cloudy
10:54 PM 36.0 °F 28.0 °F 28.0 °F 73% 30.38 in 10.0 mi NE 11.5 mph - N/A   Mostly Cloudy
11:54 PM 35.1 °F 25.5 °F 28.0 °F 76% 30.39 in 10.0 mi NNE 15.0 mph - N/A   Mostly Cloudy